Regional Weather Roundup
Issued by NWS

Home | Current Version | Previous Version | Text Only | Print | Product List | Glossary On
Versions: 1 2 3 4 5 6 7 8 9 10 11 12 13 14 15 16 17 18 19 20 21 22 23 24 25 26 27
000
ASUS44 KJAN 210710
RWRMS

MISSISSIPPI HOURLY WEATHER ROUNDUP
NATIONAL WEATHER SERVICE JACKSON MS
200 AM CDT MON AUG 21 2017

NOTE: "FAIR: INDICATES FEW OR NO CLOUDS BELOW 12,000 FEET WITH NO
SIGNIFICANT WEATHER AND/OR OBSTRUCTIONS TO VISIBILITY.

MSZ001>002-007>008-010>013-018>021-025>028-034>036-210800-
NORTHWEST MISSISSIPPI

CITY           SKY/WX    TMP DP  RH WIND       PRES   REMARKS
BATESVILLE     FAIR      74  73  95 CALM      30.10R
CLARKSDALE       N/A     77  77 100 CALM      30.08S
CLEVELAND      FAIR      77  77 100 CALM      30.08R
GREENWOOD      CLEAR     78  76  93 NE5       30.08S
GREENVILLE     CLEAR     77  74  90 CALM      30.08S
OXFORD         FAIR      73  72  94 CALM      30.13R
TUNICA           N/A     73  73 100 CALM      30.09S
WINONA         FAIR      76  76 100 CALM      30.10R
$$

MSZ003>006-009-014>017-022>024-029>033-037>039-210800-
NORTHEAST MISSISSIPPI

CITY           SKY/WX    TMP DP  RH WIND       PRES   REMARKS
COLUMBUS AFB   CLEAR     76  76 100 CALM      30.09S
GOLDN TRIANGLE CLEAR     77  70  78 CALM        N/A
STARKVILLE     FAIR      73  73 100 CALM      30.11S
TUPELO         CLEAR     76  73  91 CALM      30.09F
$$

MSZ040-058-210800-
CENTRAL MISSISSIPPI

CITY           SKY/WX    TMP DP  RH WIND       PRES   REMARKS
JACKSON INTL   PTCLDY    79  77  94 CALM      30.09S
JACKSON HAWKNS CLEAR     78  78 100 SE3       30.10R
MADISON        FAIR      73  73 100 CALM      30.09S
MERIDIAN KEY   CLEAR     78  77  96 CALM      30.10S
MERIDIAN NAS   CLEAR     78  76  93 CALM      30.10S
RAYMOND        FOG       77  77 100 CALM      30.09S VSB 3/4
VICKSBURG VKS  SUNNY     77  77 100 CALM      30.07S
$$

MSZ059>079-210800-
SOUTH MISSISSIPPI

CITY           SKY/WX    TMP DP  RH WIND       PRES   REMARKS
COLUMBIA       FAIR      75 N/A N/A CALM      30.11S
HATTIESBURG    CLEAR     77  76  96 CALM      30.09S
LAUREL         FAIR      76  76 100 CALM      30.10R
MCCOMB         CLEAR     77  74  90 CALM      30.09S
NATCHEZ        CLEAR     77  75  93 CALM      30.09S
PINE BELT      CLEAR     75  73  93 CALM      30.10S
$$

MSZ080>082-210800-
COASTAL MISSISSIPPI

CITY           SKY/WX    TMP DP  RH WIND       PRES   REMARKS
BILOXI         CLEAR     80  78  92 NE3       30.06S
PASCAGOULA     CLEAR     76  74  93 CALM      30.07R FOG
GULFPORT       CLEAR     79  78  97 NW3       30.06S
$$

LAZ007>009-015>016-023>026-210800-
NORTHEAST LOUISIANA

CITY           SKY/WX    TMP DP  RH WIND       PRES   REMARKS
BASTROP        FAIR      75  75  98 CALM      30.09S FOG
TALLULAH/VBURG CLEAR     77  76  96 CALM      30.08R FOG
VIDALIA          N/A    N/A N/A N/A MISG      30.07R
$$




USA.gov is the U.S. government's official web portal to all federal, state and local government web resources and services.